SKU011 KATL-KOKC

Flight info

Callsign SKU011
Flight time N/A
Altitude 32000
Route NASSA2 YAALL J14 DWINE RIFFL3
Aircraft A320/M-SDE3FGHIRWY/LB1

Departure

Time N/A
Airport Hartsfield Jackson Atlanta International Airport (KATL)

Arrival

Time 2026-04-29 15:15
Airport OKC Will Rogers World Airport (KOKC)
Time Latitude Longitude Altitude Speed Heading
2026-04-29 14:24 34.75100 -91.88353 32996 ft 449 kts 285°
2026-04-29 14:24 34.75910 -91.92023 32994 ft 449 kts 285°
2026-04-29 14:25 34.77531 -91.99360 32995 ft 449 kts 285°
2026-04-29 14:25 34.79148 -92.06709 32995 ft 450 kts 285°
2026-04-29 14:26 34.80751 -92.14062 32996 ft 450 kts 283°
2026-04-29 14:26 34.81597 -92.21594 32997 ft 450 kts 276°
2026-04-29 14:27 34.82277 -92.29161 32997 ft 450 kts 276°
2026-04-29 14:28 34.83300 -92.40529 32999 ft 450 kts 276°
2026-04-29 14:28 34.83973 -92.48056 33001 ft 450 kts 276°
2026-04-29 14:29 34.84646 -92.55633 33002 ft 450 kts 276°
2026-04-29 14:29 34.85313 -92.63211 33000 ft 450 kts 276°
2026-04-29 14:30 34.85972 -92.70789 32999 ft 450 kts 276°
2026-04-29 14:30 34.86620 -92.78369 32999 ft 450 kts 276°
2026-04-29 14:31 34.87270 -92.85953 32999 ft 450 kts 276°
2026-04-29 14:31 34.87926 -92.93542 32997 ft 451 kts 276°
2026-04-29 14:32 34.88572 -93.01128 32997 ft 451 kts 276°
2026-04-29 14:32 34.89209 -93.08723 33000 ft 451 kts 276°
2026-04-29 14:33 34.89842 -93.16318 32999 ft 451 kts 276°
2026-04-29 14:33 34.90472 -93.23918 32999 ft 451 kts 276°
2026-04-29 14:34 34.91095 -93.31480 32999 ft 451 kts 276°
2026-04-29 14:34 34.91714 -93.39078 33003 ft 451 kts 275°
2026-04-29 14:35 34.92326 -93.46684 33007 ft 451 kts 275°
2026-04-29 14:35 34.92934 -93.54282 33006 ft 450 kts 275°
2026-04-29 14:36 34.93539 -93.61883 33002 ft 450 kts 275°
2026-04-29 14:36 34.94136 -93.69476 32997 ft 450 kts 275°
2026-04-29 14:37 34.94726 -93.77075 32999 ft 450 kts 275°
2026-04-29 14:37 34.95320 -93.84678 32996 ft 451 kts 275°
2026-04-29 14:38 34.95909 -93.92288 32996 ft 451 kts 275°
2026-04-29 14:38 34.96492 -93.99904 32996 ft 451 kts 275°
2026-04-29 14:39 34.97075 -94.07516 32996 ft 451 kts 275°
2026-04-29 14:39 34.97648 -94.15073 32997 ft 450 kts 275°
2026-04-29 14:40 34.98208 -94.22684 32987 ft 451 kts 275°
2026-04-29 14:40 34.98766 -94.30304 32993 ft 451 kts 275°
2026-04-29 14:41 34.99326 -94.37934 33003 ft 452 kts 275°
2026-04-29 14:41 34.99884 -94.45559 33007 ft 451 kts 275°
2026-04-29 14:42 35.00438 -94.53180 33010 ft 451 kts 275°
2026-04-29 14:42 35.00975 -94.60799 33012 ft 451 kts 275°
2026-04-29 14:43 35.01518 -94.68419 33011 ft 451 kts 276°
2026-04-29 14:43 35.02400 -94.75981 33009 ft 451 kts 280°
2026-04-29 14:44 35.03545 -94.83501 33006 ft 451 kts 281°
2026-04-29 14:44 35.04666 -94.91031 33007 ft 451 kts 279°
2026-04-29 14:45 35.05684 -94.98579 33006 ft 451 kts 279°
2026-04-29 14:45 35.06676 -95.06134 33003 ft 451 kts 279°
2026-04-29 14:46 35.07679 -95.13686 33002 ft 451 kts 279°
2026-04-29 14:46 35.08686 -95.21205 33007 ft 451 kts 279°
2026-04-29 14:47 35.09688 -95.28758 33005 ft 450 kts 279°
2026-04-29 14:47 35.10685 -95.36312 33003 ft 450 kts 279°
2026-04-29 14:48 35.11669 -95.43861 32880 ft 451 kts 279°
2026-04-29 14:48 35.12160 -95.47643 32637 ft 451 kts 279°
2026-04-29 14:48 35.12634 -95.51433 32381 ft 451 kts 278°
2026-04-29 14:48 35.13087 -95.55228 32133 ft 452 kts 278°
2026-04-29 14:49 35.13532 -95.59029 31881 ft 452 kts 278°
2026-04-29 14:49 35.13975 -95.62833 31631 ft 453 kts 278°
2026-04-29 14:49 35.14412 -95.66591 31384 ft 453 kts 278°
2026-04-29 14:49 35.14856 -95.70411 31133 ft 452 kts 278°
2026-04-29 14:50 35.15299 -95.74189 30874 ft 451 kts 278°
2026-04-29 14:50 35.15747 -95.77978 30618 ft 446 kts 278°
2026-04-29 14:50 35.16188 -95.81712 30384 ft 445 kts 278°
2026-04-29 14:50 35.16630 -95.85473 29987 ft 447 kts 278°
2026-04-29 14:51 35.17071 -95.89214 29494 ft 441 kts 278°
2026-04-29 14:51 35.17502 -95.92883 29010 ft 435 kts 278°
2026-04-29 14:51 35.17929 -95.96528 28433 ft 432 kts 278°
2026-04-29 14:51 35.18350 -96.00147 27868 ft 428 kts 278°
2026-04-29 14:52 35.18768 -96.03744 27318 ft 425 kts 278°
2026-04-29 14:52 35.19179 -96.07302 26772 ft 421 kts 278°
2026-04-29 14:52 35.19585 -96.10830 26223 ft 417 kts 278°
2026-04-29 14:52 35.19986 -96.14329 25675 ft 414 kts 278°
2026-04-29 14:53 35.20381 -96.17800 25136 ft 410 kts 278°
2026-04-29 14:53 35.20770 -96.21240 24575 ft 407 kts 278°
2026-04-29 14:53 35.21142 -96.24615 24039 ft 403 kts 277°
2026-04-29 14:53 35.21490 -96.27996 23493 ft 400 kts 277°
2026-04-29 14:54 35.21819 -96.31359 22970 ft 397 kts 276°
2026-04-29 14:54 35.22138 -96.34698 22450 ft 394 kts 276°
2026-04-29 14:54 35.22455 -96.38011 21945 ft 391 kts 276°
2026-04-29 14:54 35.22771 -96.41298 21436 ft 388 kts 277°
2026-04-29 14:55 35.23086 -96.44560 20949 ft 385 kts 277°
2026-04-29 14:55 35.23402 -96.47806 20454 ft 382 kts 277°
2026-04-29 14:55 35.23716 -96.51021 19974 ft 379 kts 277°
2026-04-29 14:55 35.24028 -96.54206 19501 ft 377 kts 277°
2026-04-29 14:56 35.24336 -96.57376 19025 ft 374 kts 277°
2026-04-29 14:56 35.24643 -96.60530 18562 ft 371 kts 277°
2026-04-29 14:56 35.24939 -96.63650 18104 ft 369 kts 276°
2026-04-29 14:56 35.25153 -96.66765 17653 ft 366 kts 274°
2026-04-29 14:57 35.25302 -96.69865 17204 ft 364 kts 273°
2026-04-29 14:57 35.25417 -96.72937 16910 ft 357 kts 272°
2026-04-29 14:57 35.25523 -96.75929 16782 ft 345 kts 272°
2026-04-29 14:57 35.25629 -96.78812 16653 ft 334 kts 272°
2026-04-29 14:58 35.25743 -96.81594 16398 ft 318 kts 273°
2026-04-29 14:58 35.25857 -96.84239 16072 ft 307 kts 273°
2026-04-29 14:58 35.25972 -96.86788 15585 ft 302 kts 273°
2026-04-29 14:58 35.26091 -96.89369 15052 ft 299 kts 273°
2026-04-29 14:59 35.26206 -96.91865 14523 ft 297 kts 273°
2026-04-29 14:59 35.26322 -96.94380 13985 ft 294 kts 273°
2026-04-29 14:59 35.26435 -96.96869 13477 ft 292 kts 273°
2026-04-29 14:59 35.26547 -96.99348 13069 ft 293 kts 273°
2026-04-29 15:00 35.26659 -97.01860 12305 ft 298 kts 273°
2026-04-29 15:00 35.26771 -97.04403 11620 ft 299 kts 273°
2026-04-29 15:00 35.26890 -97.06912 11123 ft 292 kts 273°
2026-04-29 15:00 35.27016 -97.09368 10619 ft 286 kts 274°
2026-04-29 15:01 35.27142 -97.11779 10120 ft 281 kts 274°
2026-04-29 15:01 35.27267 -97.14150 9619 ft 277 kts 274°
2026-04-29 15:01 35.27392 -97.16493 9116 ft 275 kts 274°
2026-04-29 15:01 35.27515 -97.18815 8612 ft 272 kts 274°
2026-04-29 15:02 35.27638 -97.21124 8114 ft 273 kts 274°
2026-04-29 15:02 35.27763 -97.23450 7606 ft 272 kts 274°
2026-04-29 15:02 35.27886 -97.25733 7103 ft 266 kts 274°
2026-04-29 15:02 35.28007 -97.27971 6605 ft 263 kts 274°
2026-04-29 15:03 35.28129 -97.30225 6099 ft 268 kts 274°
2026-04-29 15:03 35.28343 -97.32474 5863 ft 263 kts 287°
2026-04-29 15:03 35.29267 -97.34362 5848 ft 261 kts 317°
2026-04-29 15:03 35.30803 -97.35448 5864 ft 262 kts 344°
2026-04-29 15:04 35.32605 -97.35865 5568 ft 260 kts 352°
2026-04-29 15:04 35.34381 -97.36145 5192 ft 260 kts 353°
2026-04-29 15:04 35.36167 -97.36409 4883 ft 257 kts 353°
2026-04-29 15:04 35.37947 -97.36670 4850 ft 258 kts 353°
2026-04-29 15:05 35.39737 -97.36931 4849 ft 259 kts 353°
2026-04-29 15:05 35.40949 -97.37106 4852 ft 259 kts 353°
2026-04-29 15:05 35.43323 -97.37451 4853 ft 260 kts 353°
2026-04-29 15:05 35.45117 -97.37711 4856 ft 260 kts 353°
2026-04-29 15:06 35.46910 -97.37971 4854 ft 259 kts 353°
2026-04-29 15:06 35.48703 -97.38231 4853 ft 260 kts 353°
2026-04-29 15:06 35.50497 -97.38490 4855 ft 260 kts 353°
2026-04-29 15:06 35.52294 -97.38750 4853 ft 259 kts 353°
2026-04-29 15:07 35.54083 -97.39008 4854 ft 259 kts 353°
2026-04-29 15:07 35.55881 -97.39268 4855 ft 259 kts 353°
2026-04-29 15:07 35.57673 -97.39527 4855 ft 259 kts 353°
2026-04-29 15:07 35.59466 -97.39786 4853 ft 259 kts 353°
2026-04-29 15:08 35.60648 -97.39960 4854 ft 259 kts 352°
2026-04-29 15:08 35.62342 -97.40657 4852 ft 259 kts 328°
2026-04-29 15:08 35.63831 -97.41905 4851 ft 259 kts 323°
2026-04-29 15:08 35.65194 -97.43344 4853 ft 259 kts 308°
2026-04-29 15:09 35.66008 -97.45293 4856 ft 258 kts 283°
2026-04-29 15:09 35.66078 -97.47479 4854 ft 258 kts 259°
2026-04-29 15:09 35.65449 -97.49536 4858 ft 258 kts 244°
2026-04-29 15:09 35.64682 -97.51471 4852 ft 248 kts 244°
2026-04-29 15:10 35.63924 -97.53365 4855 ft 246 kts 244°
2026-04-29 15:10 35.63167 -97.55255 4857 ft 246 kts 244°
2026-04-29 15:10 35.62223 -97.57005 4853 ft 246 kts 226°
2026-04-29 15:10 35.60873 -97.58259 4676 ft 241 kts 206°
2026-04-29 15:11 35.59316 -97.58856 4556 ft 231 kts 187°
2026-04-29 15:11 35.57728 -97.58913 4328 ft 229 kts 180°
2026-04-29 15:11 35.56151 -97.58908 3980 ft 230 kts 180°
2026-04-29 15:11 35.54565 -97.58906 3626 ft 226 kts 180°
2026-04-29 15:12 35.53011 -97.58904 3273 ft 219 kts 180°
2026-04-29 15:12 35.51535 -97.58903 2926 ft 205 kts 180°
2026-04-29 15:12 35.50158 -97.58902 2855 ft 194 kts 180°
2026-04-29 15:12 35.48793 -97.58901 2845 ft 201 kts 180°
2026-04-29 15:13 35.47391 -97.58900 2656 ft 198 kts 180°
2026-04-29 15:13 35.46064 -97.58899 2430 ft 183 kts 180°
2026-04-29 15:13 35.44860 -97.58898 2192 ft 167 kts 180°
2026-04-29 15:13 35.43750 -97.58897 1965 ft 153 kts 180°
2026-04-29 15:14 35.42707 -97.58896 1769 ft 147 kts 180°
2026-04-29 15:14 35.41690 -97.58896 1577 ft 145 kts 180°
2026-04-29 15:14 35.40683 -97.58895 1384 ft 144 kts 180°
2026-04-29 15:14 35.39703 -97.58892 1294 ft 132 kts 180°
2026-04-29 15:15 35.39004 -97.58892 1295 ft 55 kts 179°
2026-04-29 15:15 35.38880 -97.58890 1295 ft 4 kts 181°
2026-04-29 15:15 35.38819 -97.58919 1295 ft 11 kts 233°
2026-04-29 15:15 35.38802 -97.59015 1292 ft 10 kts 276°
2026-04-29 15:16 35.38803 -97.59018 1292 ft 0 kts 276°
2026-04-29 15:17 35.38837 -97.59059 1293 ft 17 kts 343°
2026-04-29 15:17 35.38955 -97.59067 1295 ft 18 kts 359°
2026-04-29 15:17 35.39086 -97.59057 1293 ft 20 kts
2026-04-29 15:17 35.39210 -97.59072 1293 ft 13 kts 310°
2026-04-29 15:18 35.39218 -97.59160 1294 ft 10 kts 274°
2026-04-29 15:18 35.39220 -97.59264 1295 ft 15 kts 270°
2026-04-29 15:18 35.39217 -97.59397 1296 ft 16 kts 268°
2026-04-29 15:18 35.39223 -97.59521 1296 ft 2 kts 319°
2026-04-29 15:19 35.39243 -97.59527 1296 ft 5 kts 348°
2026-04-29 15:19 35.39299 -97.59532 1297 ft 7 kts 359°
2026-04-29 15:19 35.39334 -97.59533 1299 ft 3 kts 358°
2026-04-29 15:19 35.39350 -97.59534 1299 ft 5 kts 354°
2026-04-29 15:20 35.39398 -97.59545 1300 ft 6 kts 349°
2026-04-29 15:20 35.39435 -97.59554 1300 ft 5 kts 347°
2026-04-29 15:20 35.39457 -97.59560 1300 ft 0 kts 347°